Wind_Speed
60 63 66 63 59 71 71 70 71 55 55 62 66 67 67 68 71 69 65 63 64 66 67 65 55 50 51 57 44 32 31 33 32 30 34 33 48 54
62 65 66 62 72 73 67 67 62 61 62 68 70 68 68 72 66 49 45 37 40 50 63 67 62 50 46 44 41 44 31 35 35 33 32 29 24 39
64 63 65 74 73 67 73 61 60 65 72 71 67 66 67 60 40 36 35 39 38 32 31 39 49 49 52 42 42 47 36 36 37 40 37 31 31 30
65 67 71 75 72 72 63 59 63 69 72 69 65 63 52 35 32 28 34 32 31 32 34 34 37 37 38 43 39 46 41 36 40 37 34 33 30 33
62 69 74 75 70 67 60 62 67 70 66 64 59 42 26 26 26 28 28 28 27 25 26 32 33 32 34 36 44 40 43 37 41 31 32 33 33 29
65 68 72 70 67 59 62 66 66 63 60 54 41 24 25 27 26 26 21 22 25 22 20 25 29 29 36 38 39 44 38 40 43 34 32 31 33 28
65 70 69 68 59 63 64 65 62 59 55 41 26 28 25 22 22 23 23 25 25 25 23 23 25 27 34 45 40 43 40 46 40 34 36 32 32 30
65 66 66 59 60 64 63 60 58 55 44 31 27 25 21 22 26 26 24 24 27 30 32 25 20 25 38 47 41 41 40 38 37 36 31 34 34 34
63 65 59 57 64 63 61 57 53 47 34 28 27 25 21 25 26 26 28 32 32 30 26 25 25 25 41 34 33 44 38 37 38 36 34 36 33 33
63 57 54 61 62 61 55 54 51 39 32 28 25 23 23 28 30 28 30 27 22 20 22 28 25 28 27 40 43 36 33 36 39 41 41 37 34 35
53 55 57 58 58 54 51 52 49 37 30 27 25 26 26 27 28 23 22 20 18 19 23 30 31 32 32 45 40 38 39 39 40 40 41 40 37 36
53 58 58 55 50 49 50 49 46 35 30 28 26 26 27 26 23 23 21 19 18 23 26 33 37 42 32 29 34 30 35 38 41 41 37 36 39 37
56 57 56 54 49 47 47 47 42 32 30 28 28 29 28 25 21 19 17 18 19 19 29 34 32 43 39 33 30 33 34 32 33 38 39 41 40 38
56 57 56 48 45 46 46 44 33 31 30 28 27 27 27 22 18 14 13 16 17 22 30 33 29 34 37 33 31 31 33 33 28 29 36 39 39 37
55 54 50 41 43 43 45 36 29 30 28 26 25 25 20 16 15 12 13 16 16 21 27 28 31 34 34 38 35 34 35 34 32 29 31 39 39 37
52 47 41 40 41 42 39 28 27 27 27 27 25 21 18 13 12 8 13 15 18 22 29 27 29 32 34 38 37 35 37 38 38 36 35 39 40 38
45 42 39 38 39 36 29 24 24 23 24 25 23 20 17 14 15 8 8 14 15 20 26 28 30 31 35 36 28 34 37 40 41 42 39 40 38 37
43 39 37 38 35 28 22 22 22 23 23 20 19 18 16 15 16 16 11 10 11 11 13 18 24 24 26 30 31 31 36 36 37 39 40 40 38 37
42 38 35 32 28 23 21 21 22 21 19 18 20 18 17 16 18 19 15 12 11 11 12 12 15 19 26 28 28 29 32 35 34 35 36 37 39 39
39 33 30 27 24 23 21 20 21 20 18 20 19 21 21 19 20 21 21 19 17 17 17 14 17 21 24 27 29 30 31 32 31 33 33 34 36 38
30 27 26 24 22 23 21 20 21 22 22 20 18 18 20 24 21 24 25 24 20 18 19 18 17 19 23 28 32 34 37 39 39 37 39 40 41 40
24 24 23 22 20 19 19 20 18 19 22 20 19 19 20 26 22 22 27 28 25 21 22 22 19 16 17 20 25 30 32 34 35 36 37 36 35 33
23 25 22 21 21 19 16 16 17 19 21 23 21 21 21 26 27 20 24 30 29 26 24 23 21 21 21 20 22 25 26 28 30 29 28 28 27 29
Wind_Direction
301 301 300 300 297 295 292 292 302 308 314 312 309 306 302 294 288 284 279 269 263 257 255 258 259 254 248 245 252 240 240 241 246 241 236 242 242 233
302 301 300 297 293 294 292 301 306 312 315 313 312 307 301 294 294 284 279 277 275 265 255 253 254 249 243 240 235 227 235 234 238 243 240 237 252 241
302 299 299 297 297 291 299 308 313 313 314 315 311 306 300 298 283 281 274 266 274 266 260 258 257 256 245 226 222 222 230 226 232 244 238 241 246 252
302 299 294 296 298 295 305 312 313 314 315 314 310 303 299 287 281 289 275 282 268 266 260 253 250 244 244 237 223 224 222 236 242 240 238 242 246 245
296 292 292 298 294 302 309 313 315 314 314 312 307 302 295 292 291 287 280 274 268 268 263 249 241 237 214 230 222 222 224 229 235 237 236 239 243 240
291 290 291 294 300 308 313 314 313 315 312 311 301 305 294 291 295 289 278 271 271 276 268 251 243 239 213 203 220 214 227 227 231 229 230 234 233 229
288 288 291 296 308 314 313 314 317 314 311 304 299 300 300 299 293 283 278 275 269 262 270 259 242 231 212 197 201 219 220 222 228 224 227 237 229 229
287 292 295 305 312 309 314 316 316 311 305 294 293 294 296 297 297 289 281 271 269 268 273 251 234 219 200 195 199 214 206 215 213 222 223 230 229 223
290 292 299 305 308 311 313 314 310 308 289 286 288 289 287 301 300 287 276 275 271 262 251 228 219 208 198 199 195 211 205 206 211 221 226 230 226 223
288 295 304 305 307 309 312 311 307 300 283 283 284 283 287 294 302 290 287 275 262 250 230 206 209 188 213 201 194 205 214 218 218 223 225 226 227 222
290 298 304 307 307 312 311 307 303 286 276 275 278 279 284 294 302 296 290 262 252 226 211 199 190 193 204 205 216 223 222 215 216 221 227 222 225 224
289 298 303 304 309 310 308 304 299 277 268 270 275 275 288 292 300 293 276 258 237 219 207 199 187 195 211 212 208 207 208 208 214 216 217 215 219 218
295 298 302 305 308 305 302 299 293 265 264 268 270 276 287 291 297 285 262 241 227 222 201 204 206 200 207 207 207 204 202 200 203 206 208 212 212 211
296 301 300 304 303 302 299 296 278 259 261 267 277 279 283 289 292 271 245 228 224 211 192 200 207 210 206 213 209 211 210 208 212 206 207 209 209 210
294 296 299 302 300 300 294 286 265 258 260 266 275 279 270 281 282 263 226 225 216 206 196 203 213 214 218 211 216 214 213 210 215 214 213 213 213 213
291 297 297 298 295 294 293 271 259 260 261 264 272 267 265 266 266 282 229 219 216 213 209 210 212 214 212 218 220 222 212 209 215 218 217 220 219 218
290 295 293 289 291 289 283 258 259 260 261 263 264 256 263 257 240 248 221 203 205 212 216 217 220 221 220 218 219 210 213 215 217 218 222 222 223 224
284 283 282 281 284 280 259 256 256 255 256 257 258 251 249 245 239 237 228 204 188 188 194 194 197 215 216 220 222 220 216 213 215 218 220 220 218 219
275 274 277 277 275 262 251 255 251 250 246 250 251 250 241 232 235 233 234 237 227 221 217 220 220 214 213 213 216 215 217 215 214 216 216 216 219 220
270 273 274 269 265 252 249 250 246 245 251 246 258 249 235 224 229 231 230 232 235 227 228 230 224 220 220 219 215 211 208 210 217 219 224 228 228 227
264 268 264 261 260 247 245 245 249 246 251 250 249 243 233 217 225 225 225 226 229 229 229 230 229 219 216 216 216 216 213 211 209 211 215 217 219 219
258 261 257 254 252 249 244 244 247 248 244 246 244 240 235 221 223 227 225 225 229 223 223 223 226 219 213 211 217 221 221 220 216 214 213 216 217 211
253 251 251 252 247 243 246 243 244 247 248 243 244 240 238 226 221 224 225 220 222 228 226 226 225 225 220 216 208 206 208 209 208 207 205 208 209 210
Height
5698 5691 5684 5679 5671 5662 5653 5645 5636 5638 5638 5632 5622 5611 5601 5592 5583 5576 5573 5573 5576 5580 5584 5590 5596 5602 5609 5615 5623 5634 5637 5642 5648 5651 5655 5658 5660 5665
5685 5678 5671 5664 5655 5646 5637 5628 5620 5613 5619 5610 5602 5591 5580 5570 5561 5556 5554 5555 5555 5558 5563 5569 5577 5585 5594 5602 5612 5622 5628 5631 5638 5642 5646 5649 5651 5654
5672 5665 5658 5649 5641 5633 5626 5616 5607 5597 5592 5591 5580 5571 5559 5551 5546 5545 5545 5545 5545 5547 5550 5553 5559 5567 5579 5593 5601 5610 5617 5623 5629 5632 5637 5640 5643 5645
5659 5651 5643 5635 5627 5621 5612 5603 5596 5584 5575 5570 5562 5552 5543 5539 5536 5537 5536 5536 5537 5538 5540 5542 5547 5554 5563 5577 5589 5598 5606 5612 5619 5623 5626 5632 5634 5637
5644 5636 5629 5621 5615 5606 5599 5591 5583 5573 5564 5554 5547 5538 5533 5531 5530 5530 5528 5528 5529 5530 5531 5533 5537 5544 5552 5563 5577 5587 5596 5601 5609 5614 5618 5622 5627 5630
5629 5622 5614 5608 5600 5591 5585 5576 5569 5561 5552 5543 5536 5532 5528 5524 5523 5523 5522 5522 5522 5523 5523 5526 5530 5535 5543 5553 5567 5576 5584 5592 5599 5605 5611 5616 5620 5624
5612 5605 5599 5593 5585 5579 5572 5563 5557 5549 5541 5533 5530 5526 5521 5519 5517 5516 5515 5515 5516 5517 5518 5519 5522 5528 5536 5545 5559 5568 5577 5582 5590 5595 5603 5608 5613 5617
5598 5592 5586 5577 5572 5566 5558 5552 5545 5537 5531 5526 5523 5519 5516 5514 5512 5509 5507 5508 5508 5509 5509 5513 5516 5521 5529 5540 5550 5561 5566 5572 5580 5588 5593 5600 5605 5611
5584 5577 5570 5564 5559 5551 5544 5539 5532 5526 5522 5519 5516 5512 5511 5508 5505 5502 5500 5499 5498 5499 5501 5505 5511 5517 5525 5534 5544 5553 5557 5565 5572 5580 5585 5592 5597 5603
5568 5564 5559 5551 5543 5538 5532 5525 5520 5515 5514 5512 5508 5506 5504 5501 5497 5493 5490 5488 5489 5490 5494 5500 5507 5513 5521 5530 5537 5544 5551 5558 5565 5572 5577 5584 5590 5597
5555 5550 5544 5536 5530 5525 5520 5514 5509 5504 5504 5503 5501 5500 5497 5494 5489 5486 5483 5481 5483 5486 5489 5496 5502 5511 5518 5525 5531 5538 5544 5551 5557 5564 5569 5576 5583 5590
5538 5535 5529 5523 5518 5513 5508 5503 5498 5494 5495 5494 5493 5492 5491 5487 5483 5479 5477 5477 5479 5482 5487 5493 5497 5505 5512 5520 5526 5532 5537 5542 5550 5555 5562 5570 5577 5583
5523 5518 5515 5511 5505 5500 5495 5490 5487 5486 5486 5486 5485 5485 5484 5480 5476 5474 5472 5473 5475 5480 5484 5491 5497 5500 5508 5515 5520 5526 5532 5538 5544 5550 5555 5562 5569 5576
5510 5506 5502 5496 5492 5488 5483 5479 5476 5476 5478 5478 5478 5477 5477 5474 5471 5469 5468 5470 5472 5475 5480 5487 5493 5499 5505 5511 5516 5521 5526 5531 5537 5543 5549 5556 5562 5569
5494 5490 5487 5483 5480 5476 5472 5467 5467 5468 5469 5470 5471 5470 5470 5469 5466 5465 5465 5468 5470 5473 5478 5483 5489 5494 5499 5505 5510 5515 5520 5526 5531 5537 5543 5550 5556 5562
5482 5478 5474 5471 5468 5464 5460 5458 5460 5461 5462 5463 5464 5464 5465 5464 5463 5462 5462 5465 5467 5471 5475 5479 5484 5488 5493 5499 5504 5509 5514 5521 5527 5532 5537 5544 5550 5555
5466 5465 5461 5459 5456 5452 5449 5451 5452 5453 5455 5457 5458 5458 5459 5460 5461 5461 5461 5462 5464 5467 5470 5474 5479 5483 5487 5494 5499 5504 5509 5515 5520 5526 5531 5537 5543 5548
5452 5450 5447 5447 5444 5442 5441 5443 5445 5447 5448 5450 5452 5453 5454 5455 5456 5458 5459 5460 5462 5464 5467 5469 5472 5478 5483 5489 5495 5499 5504 5508 5514 5519 5525 5530 5535 5540
5439 5437 5435 5435 5434 5434 5434 5436 5438 5440 5442 5444 5446 5448 5449 5451 5452 5454 5456 5457 5459 5462 5464 5467 5470 5473 5477 5482 5486 5491 5496 5502 5508 5513 5518 5524 5529 5534
5426 5425 5425 5425 5426 5426 5427 5429 5431 5434 5436 5438 5440 5442 5444 5447 5448 5450 5452 5455 5458 5459 5462 5465 5467 5470 5473 5477 5481 5486 5490 5497 5502 5507 5512 5518 5522 5526
5413 5414 5416 5417 5418 5419 5420 5422 5424 5427 5429 5432 5434 5436 5439 5442 5444 5446 5448 5451 5454 5456 5459 5462 5464 5467 5469 5472 5477 5481 5485 5490 5494 5499 5504 5509 5513 5517
5404 5406 5408 5409 5410 5411 5413 5415 5417 5420 5423 5426 5428 5430 5433 5436 5439 5442 5444 5447 5450 5453 5456 5459 5462 5464 5466 5469 5473 5477 5481 5486 5490 5494 5499 5505 5510 5515
5396 5399 5401 5402 5404 5405 5406 5408 5411 5414 5416 5419 5421 5424 5427 5430 5433 5436 5439 5441 5445 5448 5451 5455 5459 5462 5465 5468 5471 5475 5479 5483 5488 5492 5497 5501 5505 5509